Theta_e
303 300 298 296 299 302 304 310 317 308 310 317 317 322 309 308 308 309 309 310 311 312 310 311 311 310 309 306 306 308 309 316 309 307 304 303 304 306 308 318 317 308 308 307
303 299 297 296 301 303 308 313 309 308 311 315 318 310 309 308 307 308 309 310 311 312 310 310 310 308 306 305 307 307 306 312 314 306 306 302 305 308 303 304 306 307 313 311
302 298 296 297 302 304 304 311 307 309 312 313 313 311 308 308 308 308 309 309 310 311 311 310 309 308 305 305 306 305 305 310 320 319 316 311 306 309 306 308 307 307 308 307
301 297 295 298 302 302 302 311 311 309 309 313 313 311 309 308 307 308 309 308 310 311 310 310 310 307 305 304 303 303 308 310 308 309 305 305 306 305 304 302 303 305 305 303
299 296 295 299 301 301 304 308 315 309 309 310 312 312 310 309 308 308 308 309 309 310 311 309 311 308 306 305 305 306 306 310 305 307 304 303 303 303 305 304 303 301 302 303
297 295 295 298 301 301 308 306 306 315 310 310 314 314 310 309 308 308 309 309 309 310 309 308 310 309 307 308 306 307 307 310 305 308 304 303 307 306 304 304 304 306 306 306
296 295 295 298 300 302 306 306 309 314 314 310 311 310 310 309 309 308 309 309 310 308 307 307 307 307 306 307 307 307 308 307 306 309 305 309 307 304 303 303 304 305 304 304
296 295 295 297 300 301 305 306 311 316 317 309 309 309 309 310 308 307 308 309 308 306 307 310 308 309 307 305 306 306 306 307 309 309 308 308 307 305 304 303 303 304 304 304
296 295 295 297 300 302 305 305 308 313 317 314 308 309 309 311 310 308 306 306 306 309 313 311 314 310 311 304 305 304 304 305 307 308 308 309 309 304 304 303 303 305 305 304
295 295 295 297 301 303 304 302 306 308 311 306 309 311 310 309 310 310 307 305 306 308 310 312 312 309 307 306 307 305 306 306 309 308 307 306 306 304 303 303 309 305 304 304
295 296 295 297 300 302 302 302 305 307 308 305 304 307 310 310 310 310 308 308 310 312 308 315 315 310 306 306 307 305 305 307 307 307 308 308 304 302 302 304 303 303 303 302
296 296 295 298 300 301 300 302 302 302 304 304 301 301 302 304 307 310 307 309 307 310 314 314 315 310 311 306 307 306 307 308 309 308 308 307 304 303 303 302 301 302 302 302
296 296 295 299 300 301 302 301 302 302 305 304 302 302 300 302 304 305 310 310 306 307 308 313 311 309 308 309 307 306 305 306 310 305 305 305 303 303 302 301 301 301 301 300
296 296 296 299 299 301 300 303 303 304 307 306 301 300 300 301 302 305 305 305 305 306 308 311 311 309 303 306 305 305 305 305 304 304 304 304 303 302 301 300 299 299 298 298
296 295 297 299 300 300 301 301 301 303 305 306 302 301 301 302 302 303 304 304 307 309 309 310 309 305 304 303 303 303 303 304 304 304 302 302 302 300 300 299 298 298 297 297
297 298 298 299 299 299 298 297 298 301 300 305 305 300 301 302 303 303 304 305 306 307 308 307 304 303 304 305 305 304 302 301 301 301 300 300 299 299 298 297 297 297 296 296
298 297 297 298 298 300 300 302 299 300 300 304 301 301 299 301 301 302 303 303 306 305 306 306 303 302 302 304 303 301 300 300 299 300 299 299 299 298 297 297 296 296 296 295
297 297 297 298 298 297 296 296 298 300 302 303 305 300 300 299 302 301 300 302 303 304 303 301 301 302 301 302 302 301 299 298 298 298 297 297 297 297 296 296 295 295 295 294
296 296 297 298 299 298 295 296 298 299 301 306 304 302 301 299 301 300 300 302 303 300 302 301 300 301 301 301 301 299 298 298 297 297 297 297 296 296 295 295 294 294 293 292
296 296 298 300 296 294 296 299 300 299 303 305 305 301 300 300 300 301 300 301 301 300 300 300 300 300 300 299 299 298 297 296 296 296 295 295 295 294 293 292 292 291 291 291
298 297 297 295 294 297 298 302 301 300 300 300 301 301 300 301 302 301 301 301 300 301 301 300 301 302 299 297 296 296 296 295 295 294 294 293 293 293 292 292 291 291 290 289
297 295 295 296 298 299 300 299 298 300 299 298 301 302 301 300 300 300 300 299 299 301 299 299 299 299 297 296 296 295 295 294 294 293 293 293 293 293 292 292 291 290 290 289
297 297 298 299 297 301 301 299 300 301 299 299 300 301 298 298 300 299 299 299 300 299 300 299 300 298 297 296 295 294 293 293 292 292 292 291 291 292 292 292 291 290 289 288
298 298 298 301 299 299 299 301 301 300 299 300 301 300 300 299 300 298 298 299 298 298 299 300 298 296 295 294 292 292 292 292 291 291 291 291 291 290 290 290 290 289 289 288
297 298 298 298 299 300 299 300 300 300 301 300 300 299 299 299 298 299 298 297 297 297 300 298 296 294 293 292 291 291 291 290 290 290 289 289 289 289 289 289 289 288 287 286
296 296 297 298 298 300 300 300 300 299 300 300 298 298 297 297 297 297 297 297 298 299 296 296 294 292 292 290 289 289 288 288 288 288 288 288 288 288 288 288 288 287 287 287
295 297 298 298 299 299 299 298 298 297 298 298 297 296 295 296 296 296 298 299 296 295 294 293 291 289 289 288 288 287 287 288 288 288 288 287 287 288 288 288 288 287 286 286
Wind_Speed
39 36 34 32 32 31 20 8 3 8 11 5 3 3 6 2 11 5 3 3 6 9 15 10 5 6 6 7 8 8 3 2 4 5 7 4 3 1 6 2 3 4 4 5
39 36 35 35 37 34 10 4 4 6 4 4 5 7 7 9 10 9 6 4 5 10 11 6 9 10 6 8 5 6 7 3 4 5 4 1 0 3 3 3 2 6 3 2
38 37 37 38 41 32 5 4 3 3 4 3 11 12 10 9 11 9 7 5 6 10 11 4 11 9 7 7 8 7 2 3 2 2 3 6 3 4 3 2 3 4 10 14
39 39 39 40 42 33 6 3 4 5 5 3 11 12 14 12 8 6 7 5 9 12 7 8 9 11 11 7 6 4 2 2 2 3 7 9 9 9 13 10 10 6 5 12
41 42 41 42 40 29 4 3 2 4 7 12 14 14 10 16 10 11 14 7 11 11 8 4 12 16 10 7 8 8 4 2 2 3 9 9 12 14 18 19 18 19 19 23
42 41 41 41 39 25 4 1 1 2 9 14 11 10 11 15 13 10 10 10 9 9 5 5 10 12 8 7 10 9 7 3 2 1 3 7 8 15 17 17 18 17 15 14
42 40 40 40 40 24 3 4 2 2 5 10 11 15 12 14 12 7 6 9 9 10 17 14 13 9 6 8 9 8 7 5 2 1 2 3 2 1 5 6 5 8 11 12
42 39 38 39 38 22 2 3 1 1 4 9 13 13 13 11 10 6 7 10 15 17 12 5 4 3 4 5 6 7 7 6 2 2 4 10 8 5 3 4 6 10 11 10
40 38 36 35 36 16 5 2 4 2 4 5 12 12 12 10 9 6 8 10 15 8 3 3 4 4 5 4 6 6 7 7 4 4 2 4 5 5 5 5 4 9 9 11
38 37 35 34 36 14 8 5 7 5 4 7 6 7 9 10 9 5 10 5 4 8 3 2 3 3 8 7 8 6 7 5 8 6 5 6 5 6 4 2 3 8 11 13
38 36 34 33 31 16 8 9 8 5 3 8 16 9 8 12 8 6 9 4 1 2 2 2 1 2 4 4 9 8 9 8 4 6 4 6 6 3 2 7 9 11 13 14
38 35 34 33 28 19 14 7 13 14 10 5 14 22 20 17 3 5 10 1 9 5 3 2 1 1 2 5 3 13 6 7 4 7 4 4 2 4 8 10 9 11 13 15
36 34 34 33 26 19 12 16 17 13 4 6 8 7 16 17 14 13 4 2 3 5 1 3 2 2 3 3 6 5 9 11 4 2 6 7 3 7 11 12 11 13 17 18
35 34 33 31 24 19 21 15 7 8 7 4 4 5 6 6 6 4 3 10 5 10 5 2 1 1 2 1 3 2 2 4 6 7 11 9 2 12 11 11 16 15 17 20
34 33 32 29 25 23 22 20 12 8 5 3 5 11 9 6 8 10 12 12 8 4 2 1 2 2 1 1 2 5 7 6 6 3 8 5 8 11 12 11 11 13 15 16
34 33 32 30 26 24 19 3 7 11 10 4 4 5 5 10 11 12 12 10 7 3 2 1 3 3 2 2 3 4 8 11 10 4 7 6 7 8 12 9 11 11 15 16
36 34 32 28 27 16 6 4 11 13 9 3 5 5 2 9 10 9 8 9 2 3 1 0 2 3 2 1 2 10 9 6 6 10 6 4 8 7 9 10 13 14 15 15
38 35 30 25 22 15 10 15 13 10 5 4 3 4 5 5 4 3 4 2 2 2 1 1 3 3 1 3 3 9 7 4 2 6 5 2 4 7 9 13 16 17 16 20
40 35 28 18 6 4 7 14 12 11 5 3 3 7 4 5 3 3 2 1 2 1 1 2 1 3 3 5 3 5 6 6 6 3 2 5 5 8 12 15 16 13 15 20
40 27 7 3 4 24 15 4 2 3 2 2 3 5 5 7 6 3 3 1 4 3 4 3 2 3 2 6 8 5 6 4 2 4 5 7 9 11 12 13 16 18 19 21
12 5 3 13 15 3 2 2 2 3 3 2 3 8 8 7 5 4 2 3 3 3 4 4 5 2 5 6 6 8 4 2 4 7 9 10 12 11 12 14 17 20 21 20
11 18 18 6 4 2 3 3 2 3 4 4 7 8 7 3 4 3 2 2 1 2 5 2 2 4 8 8 6 3 1 4 7 9 12 15 17 18 17 17 18 20 20 23
14 6 4 4 2 3 5 6 4 5 5 6 9 7 3 3 4 3 2 3 3 7 2 3 3 8 7 6 4 4 7 11 13 15 17 19 21 21 21 20 22 21 22 23
3 4 5 1 3 1 1 5 7 6 9 10 8 5 3 3 3 3 4 3 4 4 5 2 6 8 7 6 8 9 9 12 15 18 20 20 21 22 22 20 20 20 20 24
4 4 4 3 5 8 8 8 9 10 10 9 6 4 4 3 1 3 3 4 4 4 3 5 6 7 5 5 7 10 10 14 14 18 19 21 21 20 19 20 20 21 25 27
3 5 8 7 8 7 8 9 8 8 8 5 3 3 3 3 5 3 4 5 2 3 5 5 4 4 2 6 10 12 14 15 17 20 21 22 22 21 25 27 25 24 23 23
4 3 6 7 9 7 8 7 6 10 5 2 3 3 2 4 3 5 4 3 7 6 4 3 5 5 7 9 11 13 16 16 18 20 21 24 27 27 25 19 23 20 19 21
Wind_Direction
191 186 180 175 164 171 170 199 117 155 161 153 166 187 200 201 172 77 85 262 218 178 158 166 139 161 162 148 153 132 68 119 153 112 84 10 326 171 176 228 192 254 312 286
187 184 180 173 167 173 175 132 116 162 187 148 182 203 155 192 154 162 176 172 232 147 163 141 131 108 127 157 157 150 184 156 128 164 146 86 298 58 109 93 312 245 255 253
185 184 181 174 172 175 302 108 106 137 213 217 179 179 169 167 190 157 174 164 169 173 139 138 149 134 158 163 103 31 133 195 183 168 102 111 171 208 183 145 196 250 235 261
185 183 181 175 177 188 220 137 178 168 184 258 195 186 179 173 167 147 177 178 203 168 152 147 151 154 141 163 134 170 145 159 105 205 229 204 195 200 197 208 225 227 272 311
185 183 178 176 183 187 250 131 144 168 151 171 195 189 203 183 175 161 187 198 192 164 164 175 168 151 171 172 166 177 136 171 248 251 237 246 258 249 214 210 223 246 265 276
183 181 177 181 182 178 236 275 233 168 146 180 190 195 207 191 181 177 198 205 176 144 133 86 137 153 168 145 164 174 163 132 188 189 27 334 280 249 241 249 241 230 246 265
180 178 178 181 182 181 21 223 169 94 167 174 183 179 200 194 145 164 194 203 158 99 95 83 76 94 108 146 164 175 156 143 128 258 292 243 106 144 17 6 320 290 290 293
177 178 180 182 183 186 297 330 266 127 124 170 170 178 203 162 115 148 102 37 114 140 106 76 67 40 33 313 168 198 166 141 171 221 234 304 296 32 329 309 302 313 306 316
177 177 179 178 179 173 152 142 76 106 111 193 189 185 174 132 116 89 92 111 136 151 70 99 155 175 134 185 176 204 194 196 196 175 244 253 118 114 20 350 271 37 15 352
175 175 175 175 171 156 146 105 90 79 86 7 343 189 142 126 113 112 121 115 114 81 116 153 185 164 149 161 171 181 190 184 227 219 243 271 305 66 68 235 52 348 341 335
174 173 172 171 172 158 135 89 82 90 84 32 25 9 136 149 117 146 162 100 84 105 142 191 180 238 176 196 187 174 177 179 190 213 235 252 89 143 216 14 342 345 343 339
170 169 167 167 166 160 133 96 96 101 80 96 73 56 40 35 67 130 164 216 145 157 163 215 122 112 146 214 223 168 195 207 182 192 216 156 144 286 11 10 7 354 338 322
165 165 164 165 162 152 150 127 116 86 99 72 40 21 19 44 49 127 116 150 129 171 320 109 160 198 194 185 243 202 206 192 185 332 253 274 14 33 45 17 347 349 353 342
161 162 163 161 154 139 145 128 135 115 123 99 62 40 32 28 74 94 187 105 84 108 88 93 122 177 9 295 355 303 357 197 231 241 260 291 327 43 20 359 10 351 339 337
157 159 158 153 144 147 142 121 93 110 112 109 118 92 50 73 106 113 114 122 115 95 91 98 162 41 358 271 11 268 245 242 224 277 63 0 4 15 9 13 357 349 347 353
152 151 148 144 148 149 129 51 72 94 112 106 121 96 95 92 88 93 96 93 76 96 115 153 76 65 314 253 251 141 79 61 41 40 26 15 358 333 17 351 331 340 334 345
144 143 143 146 148 148 81 126 141 120 100 96 121 129 99 122 108 83 53 65 22 88 59 88 182 151 189 266 255 94 86 68 40 54 19 350 11 344 320 311 326 333 333 334
139 137 131 126 121 84 66 105 118 121 88 80 106 106 147 218 146 99 87 69 57 22 104 9 204 116 205 247 247 97 90 65 66 91 36 322 310 299 321 328 331 333 336 338
132 127 118 98 69 87 126 105 75 77 84 118 150 154 142 182 87 130 91 50 95 34 171 206 202 173 217 233 69 96 70 48 32 1 340 4 334 327 325 329 336 339 332 332
128 119 77 90 98 125 114 69 37 34 34 358 86 108 135 153 142 96 115 233 145 172 188 110 215 252 119 97 84 84 81 82 10 10 341 327 328 337 340 331 331 329 326 327
118 94 78 123 131 119 106 114 169 139 115 125 111 122 136 156 139 134 121 179 178 200 151 201 193 158 114 102 98 84 79 27 326 332 336 331 328 322 321 323 326 326 328 335
142 118 123 132 156 141 116 135 160 176 141 144 142 130 110 82 132 103 184 132 222 190 152 195 226 122 130 115 116 91 359 345 338 333 324 323 321 320 318 314 320 323 324 319
121 90 108 146 150 125 179 161 149 136 134 137 130 118 128 134 66 96 123 141 181 122 157 211 73 110 103 97 72 21 2 357 346 332 326 321 312 318 325 327 322 316 313 308
98 112 106 145 131 115 31 129 123 115 133 141 130 93 93 129 152 142 147 157 136 196 193 126 110 106 84 60 28 359 340 329 322 316 310 313 319 314 309 306 307 309 304 304
73 48 74 70 86 78 83 101 114 111 109 115 126 119 103 81 112 193 122 173 208 208 75 94 104 87 56 19 337 332 329 322 326 321 316 312 308 308 306 308 301 297 302 302
57 52 94 108 111 105 93 101 111 126 136 138 89 107 119 150 143 146 190 188 150 73 99 109 102 81 10 337 341 336 330 326 319 313 311 310 315 313 306 302 294 299 298 291
53 58 98 106 107 104 103 104 116 130 116 100 96 118 134 119 172 157 25 53 104 110 115 90 43 19 6 339 331 332 319 315 316 310 308 303 302 298 293 295 300 296 298 307